Regional Weather Roundup
Issued by NWS Upton, NY

Current Version | Previous Version | Graphics & Text | Print | Product List | Glossary Off
Versions: 1 2 3 4 5 6 7 8 9 10 11 12 13 14 15 16 17 18 19 20 21 22 23 24 25 26 27 28 29 30 31 32 33 34 35 36 37 38 39 40 41 42 43 44 45 46 47 48 49 50

000
ASUS41 KOKX 250508
RWROKX

REGIONAL WEATHER ROUNDUP
NATIONAL WEATHER SERVICE NEW YORK NY
1200 AM EST SAT FEB 25 2017

NOTE: "FAIR" INDICATES FEW OR NO CLOUDS BELOW 12,000 FEET WITH NO
SIGNIFICANT WEATHER AND/OR OBSTRUCTIONS TO VISIBILITY.

NYZ071-072-176-178-NJZ106-104-250600-
NEW YORK CITY METRO AREA

CITY           SKY/WX    TMP DP  RH WIND       PRES   REMARKS
Central Park   PTCLDY    60  56  86 CALM      29.87F
Wall St Helipt NOT AVBL
LaGuardia APRT MOCLDY    55  52  89 S7        29.85F
Kennedy INTL   FOG       51  51 100 S7        29.87F VSB 1/4
Breezy Point     N/A     45 N/A N/A S7          N/A
Newark/Liberty MOCLDY    59  56  89 S5        29.85F
Teterboro      CLOUDY    60  56  86 S7        29.84F
$$

NYZ177-179-078>081-250600-
LONG ISLAND NEW YORK

CITY           SKY/WX    TMP DP  RH WIND       PRES   REMARKS
Jones Beach      N/A     46 N/A N/A SW2         N/A
Matinecock PT    N/A     55 N/A N/A S3G10       N/A
Farmingdale    FOG       51  51 100 SW6       29.88F VSB 1/4
MacArthur/ISP  FOG       53  53 100 SW6       29.88S VSB 1/4
Shirley        FOG       52  52 100 S7        29.89S VSB 1/4
Westhampton    CLOUDY    54  52  93 S7        29.90S
Southampton    NOT AVBL
Bridgehampton  NOT AVBL
East Hampton   CLOUDY    54  53  97 SW6       29.89S
Montauk        NOT AVBL
$$

NYZ052-065-067-250600-
HUDSON VALLEY

CITY           SKY/WX    TMP DP  RH WIND       PRES   REMARKS
White Plains   FOG       55  54  96 S6        29.85F VSB 1/4
Newburgh       NOT AVBL
Montgomery     CLOUDY    61  55  81 S6        29.80F
Poughkeepsie   MOCLDY    60  55  83 S7        29.81F
Albany         PTCLDY    59  51  75 S13       29.76F
$$

NJZ001-105-106-008-010-013-015-019>022-104-250600-
NEW JERSEY

CITY           SKY/WX    TMP DP  RH WIND       PRES   REMARKS
Newark/Liberty MOCLDY    59  56  89 S5        29.85F
Teterboro      CLOUDY    60  56  86 S7        29.84F
Caldwell       CLOUDY    62  57  83 SW7       29.84F
Somerville     CLOUDY    60  56  86 SE5       29.82F
Linden         NOT AVBL
Sussex         CLOUDY    61  57  87 SW6       29.82F
Andover          N/A     61  56  83 S5        29.81F
Trenton        PTCLDY    57  56  96 S6        29.83F
Millville      CLEAR     55  54  96 CALM      29.84F
Atlantic City  CLEAR     56  53  90 S7        29.85F
Wrightstown    CLEAR     54  53  96 S5        29.82F
Toms River     CLEAR     55  54  96 S6        29.86F
Belmar         FOG       53  52  96 S3        29.87F VSB 1
$$

PAZ047>061-062-071-250600-
EASTERN PENNSYLVANIA

CITY           SKY/WX    TMP DP  RH WIND       PRES   REMARKS
Philadelphia   MOCLDY    58  55  90 S7        29.83F
Allentown      CLOUDY    64  56  75 S12       29.81F
Scranton       CLOUDY    62  55  77 S12G25    29.75F
$$

CTZ002-004>006-009-010-012-RIZ004-006-007-MAZ004-011-015-250600-
SOUTHERN NEW ENGLAND
 IN CT

CITY           SKY/WX    TMP DP  RH WIND       PRES   REMARKS
Bradley INTL   CLOUDY    57  54  89 S8        29.86F
Hartford       CLOUDY    56  54  93 S6        29.86F
Danbury        CLOUDY    59  56  89 S9        29.86F
Wtrbury/Oxford CLOUDY    55  52  88 SW6       29.88F VSB 1/4
Bridgeport     FOG       50  47  89 CALM      29.88S VSB 1/4
Meriden        CLOUDY    54  51  90 S5        29.87F
New Haven      FOG       51  50  96 CALM      29.88S VSB 1/4
Chester        FOG       54  54 100 S7        29.88F VSB 1/4
Groton         CLOUDY    48  47  96 CALM      29.89S FOG
Wilimantic     CLOUDY    58  55  90 CALM      29.88F

 IN RI

CITY           SKY/WX    TMP DP  RH WIND       PRES   REMARKS
Providence     CLOUDY    50  49  96 CALM      29.90S FOG
Block Island   FOG       49  49 100 S12       29.90F VSB 3/4
Westerly       CLOUDY    51  48  89 S5        29.90F FOG
 IN MA

CITY           SKY/WX    TMP DP  RH WIND       PRES   REMARKS
Boston         PTCLDY    55  54  96 SW17      29.86F
Worcester      CLOUDY    55  53  93 SW16      29.86S
Westfield      CLOUDY    56  55  97 S8        29.84F
Provincetown   FOG       48  47  96 S14       29.90F VSB 1/4
Nantucket      CLOUDY    47  46  97 S9        29.94S FOG
$$

ANZ330-335-338-340-345-350-353-355-250600-
COASTAL MARINE OBSERVATIONS


STATION/POSITION TIME  SKY/WX   TEMP    WIND        PRES    VSBY  WAVE
                                AIR SEA DIR/SP/G                  HT/PER
                 (UTC)          (F)     (DEG/KT/KT) (MB)    (MI)  (FT/S)
NY HARB ENTRANCE 0350            45 44  230/  6/  6 1011.5          3/11
20 S FIRE ISLAND 0450            49 44  170/ 12/ 12 1011.4          3/11
GREAT SOUTH BAY  NOT AVBL
23 SSW MONTAUK P 0350            50 44              1012.8          3/11
15 E BARNEGAT LI 0430               44                N/A           3/11
HUDSON CANYON    0350               47              1012.6          4/10
KINGS POINT      0448            51 41              1010.9
EXECUTION ROCKS  NOT AVBL
CENTRAL LI SOUND 0430            45     180/  6/  6   N/A           1
EASTERN LI SOUND NOT AVBL
ROBBINS REEF     0448            50     190/  8/  9 1011.1
$$


>>>>>>>>>>>>>>>>>>>>>>>>>>>> KEY <<<<<<<<<<<<<<<<<<<<<<<<<<<
>                                                          <
>     SKY/WX - Sky Condition/Present Weather               <
>     TMP    - Temperature in Fahrenheit                   <
>     DP     - Dew Point in Fahrenheit                     <
>     RH     - Relative Humidity in Percent                <
>     WIND   - Direction (from) and Speed in MPH           <
>     PRES   - Mean Sea Level Pressure (inches of Hg)      <
>     WCI    - Wind Chill Index                            <
>     VSB    - VISIBILITY IN MILES                         <
>     HX     - HEAT INDEX                                  <
>     TC     - TEMPERATURE IN CELSIUS                      <
>     VRB    - VARIABLE WIND DIRECTION                     <
>                                                          <
>>>>>>>>>>>>>>>>>>>>>>>>>>>> KEY <<<<<<<<<<<<<<<<<<<<<<<<<<<



USA.gov is the U.S. government's official web portal to all federal, state and local government web resources and services.